Вернуться в каталог

STARLINK-2280

АктивенСвязьVLEO
NORAD 47861·PAYLOAD·🇺🇸 United States

Запущен Mar 14, 2021 с Cape Canaveral Space Force Station

Loading…

Ближайшие Пролёты (ближайшие 24 часа)

TLE

СвежийSource: CelesTrak SupGP

Эпоха: Sep 15, 2026, 01:26 UTC

1 47861C 21021B   26258.06020833  .00030411  00000+0  97797-3 0  2585
2 47861  53.1577  97.0328 0001297  87.9041 209.5053 15.31685546    12

Отслеживайте STARLINK-2280 в реальном времени с AllMySat

Download on the App Store